Regional Weather Roundup
Issued by NWS

Home | Current Version | Previous Version | Graphics & Text | Print | Product List | Glossary On
Versions: 1 2 3 4 5 6 7 8 9 10 11 12 13 14 15 16 17 18 19 20 21 22 23 24 25 26 27 28 29 30 31 32 33 34 35 36 37 38 39 40 41 42 43 44 45 46 47 48 49 50
000
ASUS43 KMPX 011401
RWRMN
WEATHER ROUNDUP FOR MINNESOTA
NATIONAL WEATHER SERVICE TWIN CITIES/CHANHASSEN MN
800 AM CST SUN MAR 01 2015


NOTE: "FAIR" INDICATES FEW OR NO CLOUDS BELOW 12,000 FEET WITH NO
SIGNIFICANT WEATHER AND/OR OBSTRUCTIONS TO VISIBILITY. N/A MEANS
CURRENT SKY AND/OR WEATHER CONDITIONS ARE NOT AVAILABLE.

MNZ060>063-068>070-011500-
   Twin Cities Metro

CITY           SKY/WX    TMP DP  RH WIND       PRES   REMARKS
TWIN CITIES    CLOUDY    16  11  80 W9        30.24R WCI   4
ST PAUL        CLOUDY    17  12  80 W12       30.25R WCI   4
CRYSTAL        CLOUDY    17  11  77 W12       30.22R WCI   4
BLAINE         CLOUDY    18  14  86 SW6       30.21R WCI   9
EDEN PRAIRIE   CLOUDY    14   9  80 W7        30.24R WCI   4
SOUTH ST PAUL  CLOUDY    18  13  81 W14       30.24R WCI   4
LAKE ELMO      CLOUDY    19  14  79 SW7       30.22S WCI  10
$$
MNZ001>005-007-008-013>017-022>024-027-028-011500-
   Northwest Minnesota

CITY           SKY/WX    TMP DP  RH WIND       PRES   REMARKS
BEMIDJI        CLEAR     -1  -5  85 SW8       30.11S WCI -16
HALLOCK        CLEAR     -6 -11  77 S6        30.11S WCI -18
ROSEAU         CLEAR     -2  -8  78 SW9       30.08S WCI -18
WARROAD        CLEAR     -2  -8  78 SW9       30.07S WCI -18
THIEF RVR FALL CLEAR     -2  -4  92 SW8       30.11S WCI -17
CROOKSTON      MOCLDY     0  -6  78 S7        30.16S WCI -13
FOSSTON        MOCLDY    -6  -9  84 S9        30.13S FOG     WCI -22
DETROIT LAKES  CLEAR      1  -2  85 S5        30.17R WCI  -8
MOORHEAD       FAIR       1   0  92 S5        30.21S WCI  -8
PARK RAPIDS    CLEAR     -2  -4  91 CALM      30.13S
MAHNOMEN       FAIR      -6 -10  83 S9        30.14F WCI -22
$$
MNZ006-009>011-018-025>026-011500-
   North Central Minnesota

CITY           SKY/WX    TMP DP  RH WIND       PRES   REMARKS
BAUDETTE       CLEAR     -4  -8  83 S3        30.06S
FLAG ISLAND    CLEAR     -6  -9  84 SW6       30.05S WCI -18
INTL FALLS     CLEAR      3  -1  83 W8        30.07S WCI -10
WASKISH        CLEAR      3   0  85 SW10      30.09S WCI -12
BIG FORK       CLEAR      1  -2  85 SW9       30.09S WCI -14
LONGVILLE      CLEAR      1   0  92 W5        30.14R WCI  -8
GRAND RAPIDS   CLEAR      7   1  78 SW7       30.09S WCI  -5
CRANE LAKE     FAIR       9   1  72 SW5       30.09S WCI   0
ORR            MIX PCPN   7   1  78 W3        30.05R
COOK           SUNNY      9   5  85 W6        30.08R WCI  -1
WALKER         FAIR       0  -3  84 W7        30.13R WCI -13
$$
MNZ012-019>021-037-011500-
   Northeast Minnesota

CITY           SKY/WX    TMP DP  RH WIND       PRES   REMARKS
DULUTH         LGT SNOW  13   8  81 SW10      30.08F WCI   0
ELY            CLOUDY    10   7  85 SW3       30.05S
HIBBING        SUNNY     10   2  69 W9        30.08R WCI  -3
EVELETH        LGT SNOW  12   9  85 W12       30.09R WCI  -2
DULUTH HARBOR  FLURRIES  16  10  79 SW10      30.16S WCI   3
SILVER BAY     LGT SNOW  10   7  85 CALM      30.08F
GRAND MARAIS     N/A     17  10  74 W8        30.12S WCI   7
G MARAIS ARPRT LGT SNOW   9   3  78 W5        30.01S WCI   0
$$
MNZ029>031-032-039>041-046>048-054>057-064-011500-
   West Central Minnesota

CITY           SKY/WX    TMP DP  RH WIND       PRES   REMARKS
FERGUS FALLS   FAIR      -2  -8  78 S6        30.26R WCI -14
MORRIS         CLEAR      7   0  72 W6        30.24R WCI  -3
ALEXANDRIA     CLEAR      3  -1  83 W8        30.21R WCI -10
ELBOW LAKE     FAIR      -2  -5  87 S5        30.22R WCI -12
WADENA         CLEAR      0  -4  85 W7        30.17S WCI -13
APPLETON       FAIR       3   0  85 W6        30.27S WCI  -8
BENSON         PTCLDY     7   1  78 W5        30.25R WCI  -2
ORTONVILLE     PTCLDY     7   0  72 W5        30.26R WCI  -2
MADISON        PTCLDY    10   3  72 W5        30.28R WCI   2
WILLMAR        FAIR       9   1  72 W9        30.25F WCI  -5
$$
MNZ033>034-036-042>043-049>051-058-059-011500-
   Central Minnesota

CITY           SKY/WX    TMP DP  RH WIND       PRES   REMARKS
ST CLOUD       SUNNY     10   4  76 W13       30.23R WCI  -5
SAUK CENTRE    FAIR       4   0  82 W10       30.22R WCI -11
PAYNESVILLE    PTCLDY     5   2  86 SW8       30.23R WCI  -8
PINE RIVER     CLEAR      1   0  92 W6        30.18R WCI -10
BRAINERD       PTCLDY     5   0  79 W9        30.17R WCI  -9
STAPLES        CLEAR      1  -2  85 W9        30.18R WCI -14
LONG PRAIRIE   FAIR       5   0  78 W10       30.20R WCI -10
LITTLE FALLS   PTCLDY     7   1  78 W6        30.21R WCI  -3
LITCHFIELD     CLEAR      9   3  78 W8        30.24S WCI  -4
MAPLE LAKE     MOSUNNY   12   8  84 W12       30.24R WCI  -2
$$
MNZ037-044-045-052-053-011500-
   East Central Minnesota

CITY           SKY/WX    TMP DP  RH WIND       PRES   REMARKS
PRINCETON      MOSUNNY   16   7  67 W8        30.20R WCI   5
MORA           FLURRIES  18  12  79 W6        30.18F WCI   9
RUSH CITY      CLOUDY    15  12  85 SW5       30.19S WCI   8
MOOSE LAKE     LGT SNOW  14  10  85 CALM      30.13R
HINCKLEY       LGT SNOW  18  14  86 SW6       30.16S WCI   9
CLOQUET        LGT SNOW  12   7  79 SW5       30.10S WCI   4
MCGREGOR       MOSUNNY   10   5  79 W6        30.14S WCI   1
$$
MNZ071>073-080-081-089-090-097-098-011500-
   Southwest Minnesota

CITY           SKY/WX    TMP DP  RH WIND       PRES   REMARKS
MONTEVIDEO     PTCLDY     7   3  85 NW5       30.29R WCI  -2
GRANITE FALLS  PTCLDY     7   1  79 SW8       30.30R WCI  -6
CANBY          PTCLDY    12   4  71 W13       30.28R WCI  -3
MARSHALL       PTCLDY    10   3  72 W6        30.28R WCI   1
REDWOOD FALLS  PTCLDY    10   3  73 W10       30.29R WCI  -4
OLIVIA         PTCLDY     9   5  85 W8        30.27R WCI  -4
PIPESTONE      MOCLDY     9   7  92 W3        30.25S
WINDOM         PTSUNNY   10   9  92 W8        30.27R WCI  -1
WORTHINGTON    CLOUDY    18   7  62 W8        30.29R WCI   7
JACKSON        CLOUDY    16  10  79 W8        30.27R WCI   5
TRACY          MOCLDY    13   6  71 W5        30.27R WCI   6
SLAYTON        CLOUDY    12   6  76 CALM      30.26R
$$
MNZ065>067-074>077-082>085-091>093-011500-
   South Central Minnesota

CITY           SKY/WX    TMP DP  RH WIND       PRES   REMARKS
MANKATO        PTSUNNY   14   5  67 W12       30.27R WCI   0
NEW ULM        PTSUNNY   10   3  72 W7        30.28R WCI   0
ST JAMES       PTSUNNY   16   9  73 W8        30.30R WCI   5
FAIRMONT       PTSUNNY   12   9  85 W6        30.26S WCI   3
GLENCOE        MOSUNNY   11   6  79 W8        30.25R WCI   0
FARIBAULT      MOSUNNY   16  12  86 SW9       30.25R WCI   4
OWATONNA       CLOUDY    16  12  86 SW12      30.25R WCI   3
WASECA         PTSUNNY   14  10  85 SW9       30.26S WCI   2
ALBERT LEA     CLOUDY    14  12  92 SW5       30.26R WCI   6
$$
MNZ078>079-086>088-094>096-011500-
   Southeast Minnesota

CITY           SKY/WX    TMP DP  RH WIND       PRES   REMARKS
ROCHESTER      CLOUDY    15  11  83 SW17      30.23S FOG     WCI  -1
RED WING       LGT SNOW  16  10  79 W5        30.25R WCI   9
STANTON        FLURRIES  18  13  83 W9        30.23R WCI   7
DODGE CENTER   CLOUDY    16  14  93 W14       30.22R FOG     WCI   1
WINONA         CLOUDY    14  12  92 SW3       30.30S FOG
AUSTIN         CLOUDY    14  10  85 SW7       30.26R FOG     WCI   4
PRESTON        CLOUDY    14  12  92 SW10      30.26R FOG     WCI   1
$$
ABBREVIATIONS USED IN REMARKS
   TC - TEMPERATURES IN CELSIUS
  WCI - WIND CHILL INDEX
   HX - HEAT INDEX
  VSB - VISIBILITY
$$


USA.gov is the U.S. government's official web portal to all federal, state and local government web resources and services.